, TX

(GMT )
Port Isabel

Weather History for KPIL - December, 2012

Change the Weather History Date:

Monday, December 3, 2012

  Actual Average Record
Temperature  
Mean Temperature 75 °F -  
Max Temperature 84 °F - - ()
Min Temperature 66 °F - - ()
Cooling Degree Days 10    
Growing Degree Days 25 (Base 50)    
Moisture  
Dew Point 65 °F    
Average Humidity 76    
Maximum Humidity 93    
Minimum Humidity 44    
Precipitation  
Precipitation 0.00 in - - ()
Sea Level Pressure  
Sea Level Pressure 30.02 in    
Wind  
Wind Speed 9 mph (SSE)    
Max Wind Speed 22 mph    
Max Gust Speed 32 mph    
Visibility 9 miles    
Events      
T = Trace of Precipitation, MM = Missing Value Source: NWS Daily Summary

Daily Weather History Graph

Daily Weather History Graph

Search for Another Location

Airport or City:

Trip Planner

Search our weather history database for the weather conditions in past years. The results will help you decide how hot, cold, wet, or windy it might be!

Date:

Astronomy

Dec. 03, 2012 Rise Set
Actual Time 7:01 AM CST 5:37 PM CST
Civil Twilight 6:36 AM CST 6:02 PM CST
Nautical Twilight 6:07 AM CST 6:30 PM CST
Astronomical Twilight 5:39 AM CST 6:58 PM CST
Moon 10:09 PM CST (12/3) 10:38 AM CST (12/3)
Length of Visible Light 11h 25m
Length of Day
10h 35m
Waning Gibbous, 78% of the Moon is Illuminated
Dec 3
Waning Gibbous
Dec 6
Last Quarter
Dec 13
New
Dec 19
First Quarter
Dec 28
Full

Hourly Weather History & Observations

Time (CST) Temp. Heat Index Dew Point Humidity Pressure Visibility Wind Dir Wind Speed Gust Speed Precip Events Conditions
12:53 AM 69.1 °F - 66.9 °F 93% 30.05 in 9.0 mi SE 6.9 mph - N/A   Unknown
1:53 AM 68.0 °F - 64.9 °F 90% 30.04 in 9.0 mi SSE 4.6 mph - N/A   Unknown
2:53 AM 68.0 °F - 64.9 °F 90% 30.03 in 10.0 mi South 5.8 mph - N/A   Unknown
3:53 AM 68.0 °F - 64.9 °F 90% 30.04 in 9.0 mi South 3.5 mph - N/A   Unknown
4:53 AM 66.0 °F - 63.0 °F 90% 30.03 in 7.0 mi SSE 3.5 mph - N/A   Unknown
5:53 AM 66.0 °F - 64.0 °F 93% 30.03 in 9.0 mi SSE 4.6 mph - N/A   Unknown
6:53 AM 66.9 °F - 64.9 °F 93% 30.04 in 9.0 mi SE 4.6 mph - N/A   Unknown
7:53 AM 71.1 °F - 66.9 °F 87% 30.06 in 9.0 mi SSE 6.9 mph - N/A   Unknown
10:53 AM 82.9 °F 84.4 °F 64.0 °F 53% 30.06 in 10.0 mi South 18.4 mph 25.3 mph N/A   Unknown
11:53 AM 84.0 °F 84.9 °F 63.0 °F 49% 30.04 in 9.0 mi SSE 20.7 mph 27.6 mph N/A   Unknown
1:53 PM 84.9 °F 85.0 °F 61.0 °F 44% 29.97 in 6.0 mi SSE 21.9 mph 32.2 mph N/A   Haze
2:53 PM 84.0 °F 84.5 °F 62.1 °F 47% 29.95 in 9.0 mi SSE 19.6 mph 27.6 mph N/A   Unknown
3:53 PM 82.0 °F 83.1 °F 63.0 °F 52% 29.96 in 10.0 mi SSE 16.1 mph 24.2 mph N/A   Unknown
4:53 PM 81.0 °F 82.2 °F 63.0 °F 54% 29.96 in 10.0 mi SSE 17.3 mph 24.2 mph N/A   Clear
5:53 PM 77.0 °F - 66.0 °F 69% 29.98 in 10.0 mi SSE 13.8 mph - N/A   Clear
6:53 PM 75.0 °F - 66.9 °F 76% 30.00 in 10.0 mi SSE 9.2 mph - N/A   Clear
7:53 PM 73.0 °F - 68.0 °F 84% 30.01 in 10.0 mi SE 6.9 mph - N/A   Clear
8:53 PM 73.0 °F - 68.0 °F 84% 30.03 in 10.0 mi SE 8.1 mph - N/A   Clear
9:53 PM 73.9 °F - 69.1 °F 85% 30.03 in 9.0 mi SSE 8.1 mph - N/A   Clear
10:53 PM 73.9 °F - 69.1 °F 85% 30.03 in 9.0 mi SSE 8.1 mph - N/A   Clear
11:53 PM 73.0 °F - 68.0 °F 84% 30.03 in 9.0 mi SSE 6.9 mph - N/A   Clear